AirNav   Everest Fuels
 
 386 users online  

38FA Blue Springs Airport
Madison, Florida, USA

GOING TO MADISON?


FAA INFORMATION EFFECTIVE 16 JULY 2020

Location

FAA Identifier: 38FA
Lat/Long: 30-29-00.7660N 083-14-59.5150W
30-29.012767N 083-14.991917W
30.4835461,-83.2498653
(estimated)
Elevation: 95 ft. / 29 m (estimated)
Variation: 02W (1980)
From city: 3 miles S of MADISON, FL
Time zone: UTC -4 (UTC -5 during Standard Time)
Zip code: 32340

Airport Operations

Airport use: Private use. Permission required prior to landing
Activation date: 12/1986
Control tower: no
ARTCC: JACKSONVILLE CENTER
FSS: GAINESVILLE FLIGHT SERVICE STATION
Attendance: UNATNDD
Wind indicator: yes
Segmented circle: no

Airport Communications

WX AWOS-3 at 24J (16 nm SE): 118.225 (386-362-1731)
WX ASOS at VLD (18 nm N): 126.225 (229-245-8746)

Nearby radio navigation aids

VOR radial/distance  VOR name  Freq  Var
OTKr177/17.9VALDOSTA VOR/DME114.8002W
GEFr097/27.9GREENVILLE VORTAC109.0001E
TAYr271/36.1TAYLOR VORTAC112.9003W

 
NDB name  Hdg/Dist  Freq  Var  ID
LAKE CITY300/39.120403WLCQ .-.. -.-. --.-

Airport Services

Runway Information

Runway 18/36

Dimensions: 2400 x 50 ft. / 732 x 15 m
Surface: turf
RUNWAY 18  RUNWAY 36
Traffic pattern: leftleft
Displaced threshold: 400 ft.no

Airport Ownership and Management from official FAA records

Ownership: Privately-owned
Owner: BLUE SPRINGS PROP OWNERS ASSN
PO BOX 1776
GAINESVILLE, FL 32602
Phone 352-334-1976

Additional Remarks

OWNERS DESIRE ARPT NOT BE CHARTED.
NO TKOF ON RY 18 & NO LNDG ON RY 36.
FOR CD CTC VALDOSTA APCH AT 229-257-2207, WHEN APCH CLSD CTC JACKSONVILLE ARTCC AT 904-845-1592.

Instrument Procedures

There are no published instrument procedures at 38FA.

Some nearby airports with instrument procedures:

24J - Suwannee County Airport (16 nm SE)
KVLD - Valdosta Regional Airport (18 nm N)
4J5 - Quitman Brooks County Airport (26 nm NW)
KVAD - Moody Air Force Base (29 nm N)
KFPY - Perry-Foley Airport (30 nm SW)
 
Loc | Ops | Rwys | IFR | FBO | Links
Com | Nav | Svcs | Stats | Notes
Area around 38FA (Blue Springs Airport)
 
Road maps at: MapQuest Bing Google
 
Aerial photo
No photo
 
Sectional chart

 
Airport distance calculator
Flying to Blue Springs Airport? Find the distance to fly.

From to 38FA

Sunrise and sunset
Times for 12-Aug-2020
 Local
(UTC-4)
 Zulu
(UTC)
Morning civil twilight06:3410:34
Sunrise06:5910:59
Sunset20:1600:16
Evening civil twilight20:4200:42

Current date and time
Zulu (UTC)  12-Aug-2020 07:41:46
Local (UTC-4)  12-Aug-2020 03:41:46
 
METAR
K24J 
16nm SE 
120715Z AUTO 00000KT 6SM BR CLR 22/22 A2999 RMK A01
KVLD 
17nm N 
120653Z AUTO 00000KT 10SM CLR 22/21 A3000 RMK AO2 SLP164 T02220211
KVAD 
29nm N 
120656Z AUTO 00000KT 10SM CLR 23/22 A3001 RMK AO2 SLP162 T02290215 $
KFPY 
30nm SW 
120715Z AUTO 00000KT 10SM CLR 23/22 A3000 RMK AO2 T02250220
TAF
KVLD 
17nm N 
120529Z 1206/1306 VRB04KT P6SM SCT030 FM120800 00000KT 3SM BR SCT003 TEMPO 1208/1212 BKN003 FM121400 27005KT P6SM SCT050 FM122100 20004KT 5SM -SHRA BKN040 PROB30 1221/1223 -TSRA BKN040CB FM130100 VRB03KT P6SM SCT050
NOTAMs
Click for the latest NOTAMs
NOTAMs are issued by the DoD/FAA and will open in a separate window not controlled by AirNav.

 

 
 

Would you like to see your business listed on this page?

 If your business provides an interesting product or service to pilots, flight crews, aircraft, or users of the Blue Springs Airport, you should consider listing it here.  To start the listing process, click on the button below
 
Add a business
 

Other Pages about Blue Springs Airport

Update a link
 
Copyright © AirNav, LLC. All rights reserved. Privacy Policy  Contact